Weather History for Baker, MT

Change the Weather History Date:

Sunday, April 7, 2013

  Actual Average Record
Temperature  
Mean Temperature 45 °F -  
Max Temperature 60 °F 50 °F 78 °F (2005)
Min Temperature 33 °F 34 °F 10 °F (2007)
Degree Days  
Heating Degree Days 20    
Moisture  
Dew Point 30 °F    
Average Humidity 56    
Maximum Humidity 85    
Minimum Humidity 30    
Precipitation  
Precipitation 0.00 in - - ()
Sea Level Pressure  
Sea Level Pressure 29.67 in    
Wind  
Wind Speed 10 mph (NE)    
Max Wind Speed 20 mph    
Max Gust Speed 22 mph    
Visibility 10 miles    
Events      
Averages and records for this station are not official NWS values.
T = Trace of Precipitation, MM = Missing Value Source: NWS Daily Summary

Daily Weather History Graph

Daily Weather History Graph

Search for Another Location

Airport:

Trip Planner

Search our weather history database for the weather conditions in past years. The results will help you decide how hot, cold, wet, or windy it might be!

Date:

Astronomy

Apr. 07, 2013 Rise Set
Actual Time 6:24 AM MDT 7:34 PM MDT
Civil Twilight 5:53 AM MDT 8:05 PM MDT
Nautical Twilight 5:16 AM MDT 8:42 PM MDT
Astronomical Twilight 4:37 AM MDT 9:21 PM MDT
Moon 4:52 AM MDT (4/7) 5:02 PM MDT (4/7)
Length of Visible Light 14h 11m
Length of Day
13h 09m
Waning Crescent, 8% of the Moon is Illuminated
Apr 7
Waning Crescent
Apr 10
New
Apr 18
First Quarter
Apr 25
Full
May 2
Last Quarter

Hourly Weather History & Observations

Time (MDT) Temp. Windchill Dew Point Humidity Pressure Visibility Wind Dir Wind Speed Gust Speed Precip Events Conditions
12:36 AM 37.4 °F 29.8 °F 32.0 °F 81% 29.77 in 10.0 mi ESE 11.5 mph - N/A   Clear
12:51 AM 37.0 °F 29.3 °F 30.9 °F 79% 29.77 in 10.0 mi ESE 11.5 mph - N/A   Clear
1:51 AM 37.9 °F 30.5 °F 32.0 °F 79% 29.75 in 9.0 mi SE 11.5 mph - N/A   Partly Cloudy
2:51 AM 39.0 °F 31.0 °F 33.1 °F 79% 29.74 in 9.0 mi SSE 13.8 mph - N/A   Overcast
3:51 AM 39.0 °F 32.3 °F 33.1 °F 79% 29.71 in 9.0 mi SE 10.4 mph - N/A   Overcast
4:51 AM 39.9 °F - 33.1 °F 77% 29.73 in 10.0 mi Calm Calm - N/A   Mostly Cloudy
6:51 AM 33.1 °F 28.7 °F 28.9 °F 85% 29.73 in 5.0 mi SSE 4.6 mph - N/A   Clear
8:51 AM 48.9 °F - 36.0 °F 61% 29.70 in 10.0 mi West 8.1 mph - N/A   Clear
9:51 AM 52.0 °F - 36.0 °F 54% 29.68 in 10.0 mi West 13.8 mph - N/A   Clear
10:51 AM 53.1 °F - 33.1 °F 47% 29.68 in 10.0 mi NW 10.4 mph - N/A   Clear
11:51 AM 57.0 °F - 28.9 °F 34% 29.66 in 10.0 mi WNW 12.7 mph - N/A   Clear
12:51 PM 55.9 °F - 28.0 °F 34% 29.65 in 10.0 mi WNW 15.0 mph 20.7 mph N/A   Mostly Cloudy
1:51 PM 57.0 °F - 28.0 °F 33% 29.63 in 10.0 mi WNW 10.4 mph 21.9 mph N/A   Mostly Cloudy
2:51 PM 57.0 °F - 26.1 °F 30% 29.62 in 10.0 mi WNW 13.8 mph 17.3 mph N/A   Clear
3:51 PM 57.0 °F - 26.1 °F 30% 29.61 in 10.0 mi North 5.8 mph - N/A   Partly Cloudy
4:51 PM 57.9 °F - 26.1 °F 30% 29.60 in 10.0 mi Variable 4.6 mph - N/A   Partly Cloudy
5:51 PM 55.9 °F - 25.0 °F 30% 29.61 in 10.0 mi Variable 4.6 mph - N/A   Mostly Cloudy
6:51 PM 54.0 °F - 27.0 °F 35% 29.62 in 10.0 mi North 4.6 mph - N/A   Overcast
7:51 PM 48.0 °F - 30.0 °F 50% 29.62 in 10.0 mi East 4.6 mph - N/A   Partly Cloudy
8:51 PM 46.0 °F 43.9 °F 30.9 °F 56% 29.62 in 10.0 mi SE 4.6 mph - N/A   Mostly Cloudy
9:51 PM 46.9 °F - 30.0 °F 52% 29.62 in 10.0 mi ENE 6.9 mph - N/A   Overcast
10:51 PM 43.0 °F 35.4 °F 33.1 °F 68% 29.64 in 10.0 mi NE 16.1 mph - N/A   Overcast
11:51 PM 37.9 °F 27.9 °F 32.0 °F 79% 29.65 in 10.0 mi NE 19.6 mph - N/A   Clear